EXS7Q EGNM-LTBJ

Flight info

Callsign EXS7Q
Flight time N/A
Altitude 33000
Route LAMI3W LAMIX L603 DOLAS NAVPI NOLRU DOJOH DODEN NEGIX DINKU BESNI LATLO OBEDI PODET IRDIV VABEK UL603 OLOTA RUGAS PEREN UN128 RIKSO RIKS1E
Aircraft B733/M-SDE2E3FHIRW/S

Departure

Time N/A
Airport Leeds Bradford Airport (EGNM)

Arrival

Time 2026-05-04 11:56
Airport Adnan Menderes International Airport (LTBJ)
Time Latitude Longitude Altitude Speed Heading
2026-05-04 09:25 50.26460 8.72228 32994 ft 440 kts 137°
2026-05-04 09:26 50.22991 8.78022 32988 ft 440 kts 137°
2026-05-04 09:26 50.18099 8.86164 32992 ft 440 kts 137°
2026-05-04 09:27 50.14586 8.91993 32993 ft 440 kts 137°
2026-05-04 09:27 50.09711 9.00061 32993 ft 440 kts 137°
2026-05-04 09:28 50.06201 9.05854 32996 ft 440 kts 137°
2026-05-04 09:28 50.01990 9.12786 32996 ft 441 kts 137°
2026-05-04 09:29 49.97724 9.19790 32995 ft 441 kts 137°
2026-05-04 09:29 49.93516 9.26680 33006 ft 441 kts 137°
2026-05-04 09:30 49.89329 9.33517 32990 ft 442 kts 137°
2026-05-04 09:30 49.85164 9.40267 33012 ft 442 kts 137°
2026-05-04 09:31 49.80920 9.47151 33006 ft 442 kts 137°
2026-05-04 09:31 49.76763 9.53882 33001 ft 442 kts 137°
2026-05-04 09:32 49.72494 9.60778 33006 ft 443 kts 137°
2026-05-04 09:34 49.55430 9.88188 33012 ft 443 kts 138°
2026-05-04 09:34 49.51147 9.95012 33016 ft 444 kts 138°
2026-05-04 09:35 49.46852 10.01837 33018 ft 445 kts 138°
2026-05-04 09:35 49.42583 10.08607 33028 ft 444 kts 138°
2026-05-04 09:37 49.25376 10.35702 33023 ft 442 kts 138°
2026-05-04 09:38 49.20945 10.42362 33032 ft 441 kts 140°
2026-05-04 09:38 49.16507 10.48877 33020 ft 441 kts 140°
2026-05-04 09:39 49.12091 10.55424 33022 ft 442 kts 140°
2026-05-04 09:39 49.07642 10.62013 33028 ft 442 kts 140°
2026-05-04 09:40 49.03320 10.68407 33007 ft 442 kts 140°
2026-05-04 09:40 48.98902 10.74935 33017 ft 443 kts 140°
2026-05-04 09:42 48.81190 11.00830 33026 ft 444 kts 140°
2026-05-04 09:43 48.76722 11.07328 33030 ft 444 kts 140°
2026-05-04 09:43 48.72303 11.13741 33029 ft 441 kts 140°
2026-05-04 09:44 48.67876 11.20145 33031 ft 438 kts 141°
2026-05-04 09:46 48.51016 11.47331 33031 ft 444 kts 136°
2026-05-04 09:46 48.46863 11.54207 33027 ft 444 kts 136°
2026-05-04 09:47 48.42707 11.61069 33025 ft 444 kts 136°
2026-05-04 09:49 48.26058 11.88392 33033 ft 453 kts 136°
2026-05-04 09:51 48.11025 12.12801 33008 ft 452 kts 135°
2026-05-04 09:51 48.06748 12.19705 33002 ft 452 kts 135°
2026-05-04 09:52 48.02471 12.26590 33000 ft 449 kts 136°
2026-05-04 09:52 47.98228 12.33401 32991 ft 448 kts 136°
2026-05-04 09:53 47.93920 12.40299 33013 ft 449 kts 136°
2026-05-04 09:53 47.89654 12.47112 33005 ft 450 kts 135°
2026-05-04 09:54 47.85410 12.53841 33022 ft 453 kts 135°
2026-05-04 09:54 47.81114 12.60658 33040 ft 453 kts 135°
2026-05-04 09:55 47.76848 12.67425 33023 ft 453 kts 135°
2026-05-04 09:55 47.72562 12.74220 33046 ft 452 kts 135°
2026-05-04 09:56 47.68226 12.81034 33045 ft 453 kts 137°
2026-05-04 09:56 47.63749 12.87567 33065 ft 452 kts 137°
2026-05-04 09:57 47.59267 12.94158 33079 ft 452 kts 137°
2026-05-04 09:57 47.54804 13.00746 33089 ft 453 kts 137°
2026-05-04 09:58 47.50316 13.07355 33097 ft 452 kts 137°
2026-05-04 09:58 47.45840 13.13929 33123 ft 451 kts 137°
2026-05-04 10:00 47.30568 13.37326 33142 ft 452 kts 126°
2026-05-04 10:00 47.28783 13.41127 33158 ft 452 kts 126°
2026-05-04 10:04 47.02956 13.94145 33119 ft 456 kts 126°
2026-05-04 10:04 46.99238 14.01675 33130 ft 455 kts 126°
2026-05-04 10:05 46.95447 14.09332 33128 ft 456 kts 126°
2026-05-04 10:05 46.91689 14.16900 33143 ft 454 kts 127°
2026-05-04 10:06 46.87951 14.24387 33126 ft 454 kts 127°
2026-05-04 10:06 46.83756 14.32758 33125 ft 455 kts 126°
2026-05-04 10:08 46.71113 14.57925 33088 ft 456 kts 126°
2026-05-04 10:08 46.67310 14.65450 33098 ft 457 kts 127°
2026-05-04 10:09 46.63526 14.72941 33105 ft 457 kts 127°
2026-05-04 10:09 46.59689 14.80499 33107 ft 457 kts 127°
2026-05-04 10:10 46.55836 14.88063 33103 ft 457 kts 127°
2026-05-04 10:10 46.51997 14.95579 33098 ft 458 kts 127°
2026-05-04 10:11 46.48152 15.03087 33086 ft 458 kts 127°
2026-05-04 10:11 46.44306 15.10576 33084 ft 458 kts 127°
2026-05-04 10:12 46.40449 15.18067 33091 ft 457 kts 127°
2026-05-04 10:12 46.36585 15.25551 33098 ft 456 kts 127°
2026-05-04 10:13 46.32763 15.32934 33099 ft 456 kts 127°
2026-05-04 10:13 46.28240 15.41646 33096 ft 456 kts 127°
2026-05-04 10:14 46.25043 15.47789 33086 ft 457 kts 127°
2026-05-04 10:16 46.07996 15.75269 33088 ft 459 kts 136°
2026-05-04 10:16 46.03288 15.81716 33080 ft 458 kts 136°
2026-05-04 10:17 45.98615 15.88109 33080 ft 456 kts 136°
2026-05-04 10:19 45.79962 16.13433 33072 ft 460 kts 136°
2026-05-04 10:19 45.75266 16.19780 33080 ft 460 kts 137°
2026-05-04 10:20 45.69775 16.27181 33083 ft 460 kts 136°
2026-05-04 10:20 45.65809 16.32514 33081 ft 460 kts 136°
2026-05-04 10:21 45.60302 16.39900 33078 ft 460 kts 136°
2026-05-04 10:21 45.55548 16.46261 33072 ft 460 kts 136°
2026-05-04 10:22 45.49206 16.54719 33072 ft 461 kts 136°
2026-05-04 10:23 45.44447 16.61050 33072 ft 460 kts 136°
2026-05-04 10:25 45.25373 16.86296 33060 ft 460 kts 137°
2026-05-04 10:25 45.19834 16.93575 33066 ft 460 kts 137°
2026-05-04 10:26 45.15059 16.99832 33073 ft 460 kts 137°
2026-05-04 10:26 45.10252 17.06117 33083 ft 460 kts 137°
2026-05-04 10:27 45.05490 17.12499 33077 ft 461 kts 130°
2026-05-04 10:27 45.02140 17.18487 33100 ft 463 kts 127°
2026-05-04 10:28 44.97469 17.27034 33109 ft 462 kts 127°
2026-05-04 10:28 44.94134 17.33049 33099 ft 461 kts 127°
2026-05-04 10:29 44.89451 17.41470 33091 ft 462 kts 126°
2026-05-04 10:29 44.86167 17.47326 33107 ft 462 kts 126°
2026-05-04 10:30 44.81431 17.55785 33108 ft 462 kts 126°
2026-05-04 10:30 44.77380 17.63015 33108 ft 463 kts 126°
2026-05-04 10:31 44.73393 17.70125 33107 ft 462 kts 127°
2026-05-04 10:32 44.59802 17.94194 33115 ft 464 kts 126°
2026-05-04 10:33 44.55017 18.02617 33118 ft 465 kts 126°
2026-05-04 10:33 44.50894 18.09854 33119 ft 464 kts 127°
2026-05-04 10:34 44.47487 18.15820 33127 ft 466 kts 127°
2026-05-04 10:34 44.43350 18.23049 33133 ft 466 kts 127°
2026-05-04 10:35 44.38533 18.31442 33147 ft 466 kts 126°
2026-05-04 10:35 44.34382 18.38656 33152 ft 465 kts 126°
2026-05-04 10:36 44.30232 18.45850 33159 ft 466 kts 126°
2026-05-04 10:36 44.26799 18.51788 33160 ft 466 kts 126°
2026-05-04 10:37 44.21936 18.60178 33164 ft 467 kts 126°
2026-05-04 10:37 44.18484 18.66119 33154 ft 468 kts 127°
2026-05-04 10:39 44.03962 18.91001 33176 ft 469 kts 126°
2026-05-04 10:40 43.99030 18.99395 33178 ft 468 kts 126°
2026-05-04 10:40 43.95552 19.05299 33187 ft 469 kts 126°
2026-05-04 10:41 43.90643 19.13612 33163 ft 466 kts 127°
2026-05-04 10:41 43.86510 19.20561 33122 ft 463 kts 127°
2026-05-04 10:42 43.83005 19.26453 33121 ft 464 kts 127°
2026-05-04 10:42 43.78837 19.33460 33117 ft 464 kts 127°
2026-05-04 10:43 43.73954 19.41649 33132 ft 465 kts 127°
2026-05-04 10:45 43.57011 19.69899 33157 ft 470 kts 126°
2026-05-04 10:45 43.53466 19.75784 33165 ft 471 kts 126°
2026-05-04 10:46 43.49180 19.82871 33173 ft 471 kts 126°
2026-05-04 10:46 43.44895 19.89935 33162 ft 471 kts 126°
2026-05-04 10:47 43.39842 19.98246 33164 ft 471 kts 126°
2026-05-04 10:47 43.35555 20.05279 33166 ft 471 kts 126°
2026-05-04 10:49 43.18996 20.32284 33176 ft 476 kts 127°
2026-05-04 10:50 43.14660 20.39314 33171 ft 476 kts 127°
2026-05-04 10:52 42.95887 20.68044 33140 ft 480 kts 135°
2026-05-04 10:52 42.91768 20.73307 33182 ft 477 kts 134°
2026-05-04 10:54 42.72414 20.98451 33157 ft 472 kts 133°
2026-05-04 10:56 42.51989 21.24786 33165 ft 478 kts 132°
2026-05-04 10:57 42.47892 21.30037 33163 ft 476 kts 131°
2026-05-04 10:57 42.42168 21.37360 33165 ft 476 kts 132°
2026-05-04 10:58 42.37236 21.43652 33142 ft 476 kts 132°
2026-05-04 10:58 42.33168 21.48832 33148 ft 476 kts 131°
2026-05-04 10:59 42.27434 21.56119 33132 ft 477 kts 131°
2026-05-04 10:59 42.22473 21.62421 33154 ft 475 kts 131°
2026-05-04 11:00 42.18501 21.67642 33121 ft 476 kts 130°
2026-05-04 11:02 41.98550 21.94079 33130 ft 475 kts 130°
2026-05-04 11:05 41.62830 22.40733 33113 ft 466 kts 130°
2026-05-04 11:06 41.58848 22.45891 33101 ft 464 kts 130°
2026-05-04 11:06 41.54092 22.52040 33118 ft 462 kts 131°
2026-05-04 11:10 41.22063 22.96904 33112 ft 455 kts 125°
2026-05-04 11:12 41.05702 23.23445 33090 ft 463 kts 125°
2026-05-04 11:12 41.02214 23.29073 33100 ft 470 kts 124°
2026-05-04 11:13 40.97304 23.36970 33155 ft 458 kts 125°
2026-05-04 11:13 40.93255 23.43471 33134 ft 444 kts 126°
2026-05-04 11:14 40.89918 23.48822 33071 ft 442 kts 126°
2026-05-04 11:16 40.73441 23.75079 33132 ft 439 kts 127°
2026-05-04 11:16 40.70129 23.80334 33101 ft 437 kts 127°
2026-05-04 11:17 40.66222 23.86522 33104 ft 438 kts 127°
2026-05-04 11:19 40.53377 24.08764 33002 ft 438 kts 121°
2026-05-04 11:19 40.51070 24.13171 33008 ft 445 kts 121°
2026-05-04 11:19 40.47514 24.19942 33141 ft 452 kts 121°
2026-05-04 11:20 40.44552 24.25564 33172 ft 444 kts 121°
2026-05-04 11:20 40.40530 24.33186 33116 ft 429 kts 122°
2026-05-04 11:22 40.27391 24.57966 33104 ft 432 kts 122°
2026-05-04 11:23 40.23416 24.65423 33107 ft 432 kts 122°
2026-05-04 11:25 40.11301 24.88069 33116 ft 431 kts 122°
2026-05-04 11:25 40.07836 24.94508 33123 ft 431 kts 123°
2026-05-04 11:27 39.92066 25.23595 33164 ft 444 kts 127°
2026-05-04 11:28 39.87506 25.28916 33163 ft 437 kts 138°
2026-05-04 11:28 39.82888 25.34018 33086 ft 427 kts 136°
2026-05-04 11:29 39.78342 25.39166 33079 ft 435 kts 135°
2026-05-04 11:29 39.73759 25.44360 33109 ft 438 kts 135°
2026-05-04 11:33 39.41455 25.80699 33102 ft 440 kts 136°
2026-05-04 11:33 39.36802 25.85897 33095 ft 441 kts 136°
2026-05-04 11:34 39.32117 25.91121 33100 ft 441 kts 136°
2026-05-04 11:34 39.27427 25.96280 33099 ft 441 kts 137°
2026-05-04 11:35 39.23503 26.00484 33095 ft 441 kts 137°
2026-05-04 11:35 39.21112 26.03051 32651 ft 447 kts 137°
2026-05-04 11:35 39.17925 26.06473 31252 ft 447 kts 136°
2026-05-04 11:36 39.15548 26.09022 30326 ft 441 kts 136°
2026-05-04 11:36 39.13981 26.10701 29788 ft 437 kts 136°
2026-05-04 11:36 39.10904 26.13997 28807 ft 430 kts 137°
2026-05-04 11:36 39.08620 26.16441 28051 ft 426 kts 137°
2026-05-04 11:37 39.06345 26.18874 27323 ft 424 kts 137°
2026-05-04 11:37 39.04042 26.21339 26741 ft 439 kts 137°
2026-05-04 11:37 39.01647 26.23896 26167 ft 440 kts 137°
2026-05-04 11:37 38.99316 26.26379 25598 ft 432 kts 137°
2026-05-04 11:38 38.97033 26.28811 25018 ft 424 kts 138°
2026-05-04 11:38 38.94762 26.31228 24445 ft 426 kts 138°
2026-05-04 11:38 38.93227 26.32864 24076 ft 436 kts 139°
2026-05-04 11:38 38.90133 26.36150 23284 ft 429 kts 138°
2026-05-04 11:39 38.87850 26.38565 22696 ft 421 kts 138°
2026-05-04 11:39 38.85583 26.40958 22125 ft 414 kts 137°
2026-05-04 11:40 38.72504 26.55446 18766 ft 398 kts 135°
2026-05-04 11:41 38.70428 26.57770 18233 ft 392 kts 135°
2026-05-04 11:41 38.68374 26.60067 17694 ft 388 kts 135°
2026-05-04 11:41 38.66343 26.62336 17164 ft 383 kts 135°
2026-05-04 11:41 38.64368 26.64542 16663 ft 378 kts 135°
2026-05-04 11:42 38.62397 26.66746 16147 ft 373 kts 135°
2026-05-04 11:42 38.60408 26.68973 15637 ft 369 kts 135°
2026-05-04 11:42 38.58467 26.71141 15140 ft 364 kts 135°
2026-05-04 11:42 38.56552 26.73276 14645 ft 360 kts 135°
2026-05-04 11:43 38.54667 26.75374 14159 ft 356 kts 134°
2026-05-04 11:43 38.52796 26.77455 13682 ft 352 kts 134°
2026-05-04 11:43 38.50972 26.79481 13206 ft 349 kts 134°
2026-05-04 11:43 38.49094 26.81566 12711 ft 345 kts 134°
2026-05-04 11:44 38.47909 26.82880 12394 ft 340 kts 134°
2026-05-04 11:44 38.45531 26.85515 11798 ft 331 kts 134°
2026-05-04 11:44 38.43807 26.87426 11353 ft 325 kts 134°
2026-05-04 11:44 38.42108 26.89306 10889 ft 320 kts 134°
2026-05-04 11:45 38.40460 26.91131 10421 ft 317 kts 134°
2026-05-04 11:45 38.39291 26.92424 10118 ft 313 kts 134°
2026-05-04 11:45 38.37626 26.94263 9803 ft 304 kts 134°
2026-05-04 11:45 38.35574 26.96524 9789 ft 278 kts 134°
2026-05-04 11:46 38.34117 26.98133 9803 ft 274 kts 134°
2026-05-04 11:46 38.32568 26.99854 9549 ft 297 kts 135°
2026-05-04 11:46 38.30911 27.01474 9086 ft 304 kts 149°
2026-05-04 11:46 38.28909 27.02605 8602 ft 307 kts 155°
2026-05-04 11:47 38.26924 27.03632 8205 ft 304 kts 155°
2026-05-04 11:47 38.24945 27.04652 7796 ft 303 kts 155°
2026-05-04 11:47 38.22959 27.05674 7396 ft 301 kts 155°
2026-05-04 11:47 38.21008 27.06677 6979 ft 298 kts 155°
2026-05-04 11:48 38.19714 27.07345 6707 ft 295 kts 155°
2026-05-04 11:48 38.17188 27.08650 6314 ft 286 kts 156°
2026-05-04 11:48 38.15906 27.09180 6076 ft 285 kts 163°
2026-05-04 11:48 38.13316 27.09878 5608 ft 281 kts 167°
2026-05-04 11:49 38.11392 27.10368 5257 ft 279 kts 167°
2026-05-04 11:49 38.09439 27.10872 4907 ft 277 kts 167°
2026-05-04 11:49 38.07631 27.11532 4713 ft 266 kts 148°
2026-05-04 11:49 38.06234 27.13085 4657 ft 260 kts 117°
2026-05-04 11:50 38.05651 27.15191 4676 ft 244 kts 86°
2026-05-04 11:50 38.05667 27.16624 4680 ft 236 kts 81°
2026-05-04 11:50 38.05772 27.18744 4685 ft 235 kts 80°
2026-05-04 11:50 38.05984 27.20789 4662 ft 226 kts 63°
2026-05-04 11:51 38.07316 27.22583 4640 ft 207 kts 15°
2026-05-04 11:51 38.08770 27.22675 4638 ft 204 kts 345°
2026-05-04 11:51 38.09674 27.22283 4618 ft 203 kts 341°
2026-05-04 11:51 38.11465 27.21391 4362 ft 196 kts 340°
2026-05-04 11:52 38.12716 27.20772 4053 ft 191 kts 343°
2026-05-04 11:52 38.14055 27.20267 3177 ft 202 kts 346°
2026-05-04 11:52 38.15394 27.19843 2695 ft 188 kts 347°
2026-05-04 11:52 38.16616 27.19476 2576 ft 162 kts 347°
2026-05-04 11:53 38.17328 27.19264 2506 ft 153 kts 346°
2026-05-04 11:53 38.18403 27.18943 2369 ft 154 kts 346°
2026-05-04 11:53 38.19764 27.18538 2003 ft 142 kts 346°
2026-05-04 11:53 38.20719 27.18253 1817 ft 137 kts 345°
2026-05-04 11:55 38.26886 27.16408 610 ft 133 kts 344°
2026-05-04 11:55 38.28104 27.16040 399 ft 130 kts 344°
2026-05-04 11:56 38.28881 27.15802 410 ft 86 kts 344°
2026-05-04 11:56 38.29196 27.15709 411 ft 55 kts 346°
2026-05-04 11:56 38.29490 27.15620 412 ft 8 kts 348°
2026-05-04 11:56 38.29505 27.15615 412 ft 3 kts 348°
2026-05-04 11:57 38.29577 27.15595 413 ft 11 kts 346°
2026-05-04 11:57 38.29637 27.15576 414 ft 15 kts 345°
2026-05-04 11:57 38.29750 27.15516 415 ft 19 kts 329°
2026-05-04 11:57 38.29853 27.15410 415 ft 0 kts 318°
2026-05-04 11:58 38.29855 27.15408 415 ft 0 kts 319°
2026-05-04 11:58 38.29858 27.15405 415 ft 0 kts 319°
2026-05-04 11:58 38.29868 27.15393 415 ft 4 kts 317°
2026-05-04 11:58 38.29903 27.15337 415 ft 11 kts 288°
2026-05-04 11:59 38.29842 27.15299 414 ft 13 kts 166°
2026-05-04 11:59 38.29768 27.15321 412 ft 18 kts 167°
2026-05-04 11:59 38.29612 27.15366 410 ft 25 kts 167°
2026-05-04 11:59 38.29416 27.15423 408 ft 9 kts 166°
2026-05-04 12:00 38.29386 27.15405 408 ft 7 kts 248°
2026-05-04 12:00 38.29373 27.15332 407 ft 8 kts 258°
2026-05-04 12:00 38.29352 27.15216 405 ft 11 kts 257°
2026-05-04 12:00 38.29346 27.15137 405 ft 6 kts 309°
2026-05-04 12:01 38.29376 27.15121 405 ft 6 kts 347°
2026-05-04 12:01 38.29413 27.15131 405 ft 3 kts 65°
2026-05-04 12:02 38.29429 27.15198 406 ft 0 kts 76°